User: anonymous   Login
Location: Peebles
(55.6412°N, 3.1714°W)
Time: 02:16:23
(UTC+00:00)
Language:

Cosmos 1934 Rocket - Orbit

View from above orbital plane
View from above orbital plane
View from above satellite
View from above satellite

Ground track
Ground track

The orbit data is extracted from the following two-line orbital elements,

1 18986U 88023B   21333.35705831  .00000008  00000-0 -72993-5 0  9991
2 18986  82.9536 273.7344 0041231 334.4578  25.4542 13.78651637694426
Epoch (UTC): 29 November 2021 08:34:09
Eccentricity: 0.0041231
inclination: 82.9536°
perigee height: 938 km
apogee height: 999 km
right ascension of ascending node: 273.7344°
argument of perigee: 334.4578°
revolutions per day: 13.78651637
mean anomaly at epoch: 25.4542°
orbit number at epoch: 69442

The dashed part of the orbit path shows where the satellite is in the earth's shadow,  

DLR